• Em Portugal
  • Lista de países
  • Para 7 dias
  • Temperatura da água
  • Mapas de satélite
  • Mapa do tempo
  • Widgets de tempo
  • user-avatar
    Iniciar Sessão

    Previsão horária em Maszutkinie

    Hoje, 22 Junho, Sexta-feira

    Tempo Temperatura Precipitação Vento Pressão Humidade
    00:00 +12°C° 0 mm 5 m/s 735 mmHg 94%
    01:00 +10°C° 0 mm 5 m/s 735 mmHg 94%
    02:00 +9°C° 0 mm 3 m/s 736 mmHg 95%
    03:00 +8°C° 0 mm 4 m/s 736 mmHg 94%
    04:00 +8°C° 0 mm 4 m/s 737 mmHg 94%
    05:00 +8°C° 0 mm 5 m/s 737 mmHg 93%
    06:00 +9°C° 0 mm 5 m/s 737 mmHg 88%
    07:00 +10°C° 0 mm 6 m/s 738 mmHg 83%
    08:00 +11°C° 0 mm 6 m/s 738 mmHg 78%
    09:00 +13°C° 0 mm 6 m/s 738 mmHg 72%
    10:00 +14°C° 0 mm 6 m/s 739 mmHg 67%
    11:00 +15°C° 0 mm 6 m/s 739 mmHg 61%
    12:00 +15°C° 0,1 mm 6 m/s 739 mmHg 59%
    13:00 +16°C° 0,1 mm 6 m/s 739 mmHg 57%
    14:00 +16°C° 0,1 mm 6 m/s 739 mmHg 55%
    15:00 +16°C° 0 mm 6 m/s 739 mmHg 57%
    16:00 +16°C° 0 mm 6 m/s 739 mmHg 58%
    17:00 +16°C° 0 mm 5 m/s 740 mmHg 60%
    18:00 +15°C° 0 mm 4 m/s 740 mmHg 66%
    19:00 +14°C° 0 mm 3 m/s 740 mmHg 72%
    20:00 +14°C° 0 mm 2 m/s 740 mmHg 78%
    21:00 +12°C° 0 mm 2 m/s 740 mmHg 82%
    22:00 +10°C° 0 mm 2 m/s 740 mmHg 86%
    23:00 +9°C° 0 mm 2 m/s 740 mmHg 91%

    Amanhã, 23 Junho, Sábado

    Tempo Temperatura Precipitação Vento Pressão Humidade
    00:00 +9°C° 0 mm 2 m/s 740 mmHg 91%
    01:00 +8°C° 0 mm 2 m/s 740 mmHg 91%
    02:00 +8°C° 0 mm 2 m/s 740 mmHg 92%
    03:00 +8°C° 0 mm 2 m/s 740 mmHg 91%
    04:00 +8°C° 0 mm 2 m/s 740 mmHg 91%
    05:00 +8°C° 0 mm 2 m/s 740 mmHg 91%
    06:00 +10°C° 0 mm 3 m/s 740 mmHg 85%
    07:00 +11°C° 0 mm 3 m/s 740 mmHg 80%
    08:00 +13°C° 0 mm 3 m/s 740 mmHg 74%
    09:00 +14°C° 0,1 mm 3 m/s 740 mmHg 69%
    10:00 +16°C° 0,1 mm 3 m/s 740 mmHg 63%
    11:00 +18°C° 0,1 mm 3 m/s 740 mmHg 57%
    12:00 +18°C° 0,4 mm 3 m/s 740 mmHg 59%
    13:00 +18°C° 0,4 mm 3 m/s 739 mmHg 61%
    14:00 +18°C° 0,4 mm 3 m/s 739 mmHg 62%
    15:00 +18°C° 0,3 mm 3 m/s 739 mmHg 65%
    16:00 +17°C° 0,3 mm 3 m/s 739 mmHg 68%
    17:00 +17°C° 0,3 mm 3 m/s 739 mmHg 71%
    18:00 +16°C° 0,5 mm 3 m/s 739 mmHg 77%
    19:00 +15°C° 0,5 mm 2 m/s 739 mmHg 83%
    20:00 +13°C° 0,5 mm 2 m/s 739 mmHg 89%
    21:00 +12°C° 0,1 mm 2 m/s 739 mmHg 91%
    22:00 +10°C° 0,1 mm 2 m/s 739 mmHg 93%
    23:00 +9°C° 0,1 mm 2 m/s 739 mmHg 94%

    Depois de amanhã, 24 Junho, Domingo

    Tempo Temperatura Precipitação Vento Pressão Humidade
    00:00 +9°C° 0 mm 2 m/s 739 mmHg 95%
    01:00 +8°C° 0 mm 3 m/s 739 mmHg 95%
    02:00 +7°C° 0 mm 3 m/s 739 mmHg 95%
    03:00 +7°C° 0,1 mm 3 m/s 739 mmHg 95%
    04:00 +7°C° 0,1 mm 3 m/s 739 mmHg 96%
    05:00 +7°C° 0,1 mm 3 m/s 739 mmHg 96%
    06:00 +8°C° 0,1 mm 3 m/s 739 mmHg 93%
    07:00 +10°C° 0,1 mm 3 m/s 739 mmHg 90%
    08:00 +11°C° 0,1 mm 3 m/s 740 mmHg 88%
    09:00 +12°C° 0,2 mm 3 m/s 740 mmHg 83%
    10:00 +13°C° 0,2 mm 3 m/s 740 mmHg 78%
    11:00 +14°C° 0,2 mm 3 m/s 740 mmHg 72%
    12:00 +14°C° 0,3 mm 3 m/s 740 mmHg 70%
    13:00 +16°C° 0,3 mm 3 m/s 740 mmHg 68%
    14:00 +16°C° 0,3 mm 3 m/s 740 mmHg 66%
    15:00 +16°C° 0,4 mm 3 m/s 740 mmHg 68%
    16:00 +15°C° 0,4 mm 4 m/s 740 mmHg 70%
    17:00 +15°C° 0,4 mm 4 m/s 740 mmHg 73%
    18:00 +14°C° 0,2 mm 3 m/s 740 mmHg 78%
    19:00 +13°C° 0,2 mm 3 m/s 740 mmHg 83%
    20:00 +13°C° 0,2 mm 2 m/s 740 mmHg 89%
    21:00 +12°C° 0,1 mm 2 m/s 741 mmHg 91%
    22:00 +10°C° 0,1 mm 2 m/s 741 mmHg 93%
    23:00 +9°C° 0,1 mm 2 m/s 741 mmHg 94%

    25 Junho, Segunda-feira

    Tempo Temperatura Precipitação Vento Pressão Humidade
    00:00 +9°C° 0 mm 2 m/s 741 mmHg 95%
    01:00 +9°C° 0 mm 2 m/s 742 mmHg 95%
    02:00 +8°C° 0 mm 2 m/s 742 mmHg 95%
    03:00 +8°C° 0 mm 2 m/s 742 mmHg 95%
    04:00 +8°C° 0 mm 2 m/s 742 mmHg 95%
    05:00 +8°C° 0 mm 2 m/s 743 mmHg 96%
    06:00 +10°C° 0 mm 2 m/s 743 mmHg 90%
    07:00 +12°C° 0 mm 2 m/s 743 mmHg 84%
    08:00 +14°C° 0 mm 2 m/s 744 mmHg 79%
    09:00 +15°C° 0 mm 2 m/s 744 mmHg 72%
    10:00 +16°C° 0 mm 3 m/s 744 mmHg 65%
    11:00 +17°C° 0 mm 3 m/s 744 mmHg 58%
    12:00 +18°C° 0,1 mm 3 m/s 744 mmHg 58%
    13:00 +18°C° 0,1 mm 3 m/s 744 mmHg 59%
    14:00 +19°C° 0,1 mm 4 m/s 744 mmHg 60%
    15:00 +18°C° 0,3 mm 4 m/s 744 mmHg 64%
    16:00 +18°C° 0,3 mm 4 m/s 745 mmHg 67%
    17:00 +18°C° 0,3 mm 4 m/s 745 mmHg 71%
    18:00 +17°C° 0,1 mm 3 m/s 745 mmHg 75%
    19:00 +16°C° 0,1 mm 2 m/s 745 mmHg 79%
    20:00 +16°C° 0,1 mm 2 m/s 745 mmHg 83%
    21:00 +14°C° 0 mm 2 m/s 745 mmHg 85%
    22:00 +13°C° 0 mm 2 m/s 746 mmHg 87%
    23:00 +12°C° 0 mm 2 m/s 746 mmHg 90%

    26 Junho, Terça-feira

    Tempo Temperatura Precipitação Vento Pressão Humidade
    00:00 +10°C° 0 mm 2 m/s 746 mmHg 90%
    01:00 +10°C° 0 mm 2 m/s 746 mmHg 90%
    02:00 +10°C° 0 mm 2 m/s 746 mmHg 90%
    03:00 +10°C° 0 mm 2 m/s 746 mmHg 90%
    04:00 +10°C° 0 mm 2 m/s 746 mmHg 89%
    05:00 +12°C° 0 mm 2 m/s 746 mmHg 88%
    06:00 +13°C° 0 mm 2 m/s 746 mmHg 84%
    07:00 +14°C° 0 mm 2 m/s 746 mmHg 81%
    08:00 +16°C° 0 mm 3 m/s 746 mmHg 78%
    09:00 +16°C° 0,4 mm 3 m/s 746 mmHg 77%
    10:00 +17°C° 0,4 mm 3 m/s 746 mmHg 76%
    11:00 +18°C° 0,4 mm 3 m/s 746 mmHg 75%
    12:00 +18°C° 0,5 mm 3 m/s 746 mmHg 76%
    13:00 +18°C° 0,5 mm 4 m/s 745 mmHg 77%
    14:00 +18°C° 0,5 mm 4 m/s 745 mmHg 78%
    15:00 +18°C° 0,3 mm 4 m/s 745 mmHg 76%
    16:00 +19°C° 0,3 mm 4 m/s 745 mmHg 74%
    17:00 +20°C° 0,3 mm 4 m/s 745 mmHg 72%
    18:00 +19°C° 0,5 mm 4 m/s 745 mmHg 77%
    19:00 +18°C° 0,5 mm 3 m/s 745 mmHg 82%
    20:00 +16°C° 0,5 mm 3 m/s 745 mmHg 87%
    21:00 +14°C° 0 mm 3 m/s 745 mmHg 89%
    22:00 +13°C° 0 mm 3 m/s 745 mmHg 91%
    23:00 +12°C° 0 mm 3 m/s 745 mmHg 93%

    27 Junho, Quarta-feira

    Tempo Temperatura Precipitação Vento Pressão Humidade
    00:00 +11°C° 0 mm 3 m/s 745 mmHg 94%
    01:00 +11°C° 0 mm 3 m/s 745 mmHg 95%
    02:00 +10°C° 0 mm 3 m/s 745 mmHg 96%
    03:00 +10°C° 0 mm 3 m/s 745 mmHg 96%
    04:00 +10°C° 0 mm 3 m/s 745 mmHg 96%
    05:00 +10°C° 0 mm 3 m/s 745 mmHg 97%
    06:00 +11°C° 0 mm 3 m/s 745 mmHg 94%
    07:00 +12°C° 0 mm 3 m/s 746 mmHg 91%
    08:00 +13°C° 0 mm 4 m/s 746 mmHg 88%
    09:00 +14°C° 0 mm 4 m/s 746 mmHg 85%
    10:00 +15°C° 0 mm 4 m/s 746 mmHg 82%
    11:00 +17°C° 0 mm 4 m/s 746 mmHg 80%
    12:00 +18°C° 0 mm 4 m/s 746 mmHg 75%
    13:00 +19°C° 0 mm 4 m/s 746 mmHg 70%
    14:00 +20°C° 0 mm 4 m/s 746 mmHg 65%
    15:00 +20°C° 0,2 mm 4 m/s 746 mmHg 66%
    16:00 +20°C° 0,2 mm 5 m/s 746 mmHg 68%
    17:00 +20°C° 0,2 mm 5 m/s 746 mmHg 69%
    18:00 +19°C° 0,2 mm 4 m/s 746 mmHg 74%
    19:00 +18°C° 0,2 mm 4 m/s 746 mmHg 79%
    20:00 +17°C° 0,2 mm 3 m/s 746 mmHg 83%
    21:00 +16°C° 0 mm 3 m/s 746 mmHg 85%
    22:00 +14°C° 0 mm 3 m/s 746 mmHg 87%
    23:00 +13°C° 0 mm 3 m/s 746 mmHg 89%
    Mostrar mais